{"data":{"norad_id":65894,"intl_designator":"2025-224N","name":"STARLINK-34672","alt_names":[],"object_type":"PAYLOAD","status":"ACTIVE","operator":null,"country":"US","launch_date":"2025-10-07","launch_site_code":"AFETR","launch_vehicle":null,"mission":null,"orbit_class":"UNKNOWN","rcs_meters":null,"size_class":null,"mass_kg":null,"dimensions":null,"purposes":["comms"],"wikipedia_slug":null,"has_3d_model":false,"image_url":null,"decayed_at":null,"tle_current":{"epoch":"2026-09-20T04:52:50.618496Z","epoch_age_seconds":131807,"freshness":"FRESH","line1":"1 65894U 25224N   26263.20336364  .00021098  00000+0  63343-3 0  9994","line2":"2 65894  53.1589 187.2521 0000281  50.5969 309.5058 15.34418585 54661","mean_motion":15.34418585,"eccentricity":2.81e-5,"inclination_deg":53.1589,"raan_deg":187.2521,"arg_perigee_deg":50.5969,"mean_anomaly_deg":309.5058,"bstar":0.00063343,"rev_number":5466,"period_min":93.846621389821,"perigee_km":462.45577616948,"apogee_km":462.8402282866,"semimajor_km":6840.785002228,"source":"CELESTRAK","updated_at":"2026-09-21T09:00:35.758733Z"}}}